AirNav  
 
 975 users online  

WV20 Wetzel County Hospital Heliport
New Martinsville, West Virginia, USA

GOING TO NEW MARTINSVILLE?


FAA INFORMATION EFFECTIVE 12 OCTOBER 2017

Location

FAA Identifier: WV20
Lat/Long: 39-40-52.2800N / 080-50-55.3100W
39-40.871333N / 080-50.921833W
39.6811889 / -80.8486972
(estimated)
Elevation: 689 ft. / 210 m (estimated)
Variation: 07W (1990)
From city: 3 miles N of NEW MARTINSVILLE, WV
Time zone: UTC -4 (UTC -5 during Standard Time)
Zip code: 26624

Heliport Operations

Heliport use: Private use, MEDICAL USE ONLY.
Activation date: 03/1992
Control tower: no
ARTCC: CLEVELAND CENTER
FSS: ELKINS FLIGHT SERVICE STATION [703-724-4288]
Attendance: CONTINUOUS
Wind indicator: lighted
Segmented circle: no
Lights: FOR PERIMETER LGTS CALL 304-455-8100.
Beacon: white-green-yellow (heliport)
FOR ROTG BCN CALL 304-455-8100.

Heliport Communications

WX AWOS-3 at MPG (13 nm NE): 119.05 (304-845-2959)

Nearby radio navigation aids

VOR radial/distance  VOR name  Freq  Var
AIRr191/20.2BELLAIRE VOR/DME117.1007W
JPUr062/28.3PARKERSBURG VOR/DME108.6003W
HLGr207/37.0WHEELING VOR/DME112.2007W
CKBr318/37.2CLARKSBURG VOR/DME112.6004W

 
NDB name  Hdg/Dist  Freq  Var  ID
CADIZ174/34.223907WCFX -.-. ..-. -..-

Heliport Services

Runway Information

Helipad H1

Dimensions: 20 x 20 ft. / 6 x 6 m
Surface: concrete
Runway edge lights: PERIMETER LGTS.
Latitude: 39-40.871333N
Longitude: 080-50.921833W
Elevation: 689.0 ft.
Traffic pattern: leftleft

Heliport Ownership and Management from official FAA records

Ownership: Publicly-owned
Owner: WETZEL COUNTY HOSPITAL ASSOCIATION
3 EAST BENJAMIN DRIVE
NEW MARTINSVILLE, WV 26155
Phone 304-455-8000
Manager: TOM LANGSDORF
3 EAST BENJAMIN DRIVE
NEW MARTINSVILLE, WV 26155
Phone 304-455-8000
MICHAEL CONNERS 304-551-4083

Heliport Operational Statistics

Aircraft based on the field: 1
Helicopters: 1
    

Additional Remarks

HELIPAD OPERATOR AIR EVAC LIFETEAM (BASE78)
A52-H1 BLDG 175 FT WEST OF PAD; 20 FT PLINES 300 FT WEST OF PAD; 10 TREES 300 FT WEST OF PAD.

Instrument Procedures

There are no published instrument procedures at WV20.

Some nearby airports with instrument procedures:

KMPG - Marshall County Airport (13 nm NE)
4G5 - Monroe County Airport (13 nm NW)
2P7 - Alderman Airport (23 nm N)
6G5 - Barnesville-Bradfield Airport (25 nm NW)
KHLG - Wheeling Ohio County Airport (31 nm N)
 
Loc | Ops | Rwys | IFR | FBO | Links
Com | Nav | Svcs | Stats | Notes


 
Area around WV20 (Wetzel County Hospital Heliport)
 
Road maps at: MapQuest Bing Google
 
Aerial photo
No photo
 
Sectional chart

 
Airport distance calculator
Flying to Wetzel County Hospital Heliport? Find the distance to fly.

From to WV20

Sunrise and sunset
Times for 22-Oct-2017
 Local
(UTC-4)
 Zulu
(UTC)
Morning civil twilight07:1511:15
Sunrise07:4211:42
Sunset18:3422:34
Evening civil twilight19:0123:01

Current date and time
Zulu (UTC)  22-Oct-2017 14:58:07
Local (UTC-4)  22-Oct-2017 10:58:07
 
METAR
KHLG 
31nm N 
221453Z 18009KT 10SM CLR 19/11 A3029 RMK AO2 SLP258 T01940111 51003
KPKB 
33nm SW 
221453Z 19007KT 10SM FEW018 19/11 A3032 RMK AO2 SLP264 FU FEW018 8SW MOVG N T01940111 51006 $
KCKB 
37nm SE 
221453Z 00000KT 10SM CLR 19/11 A3031 RMK AO2 SLP257 T01940111 50001
KAFJ 
37nm NE 
221256Z AUTO 22004KT 10SM CLR 10/09 A3033 RMK AO2 SLP272 T01000089
KCDI 
38nm NW 
221453Z AUTO 19008KT 10SM CLR 20/12 A3029 RMK AO2 T02020118
KMGW 
43nm E 
221453Z 19003KT 10SM CLR 20/11 A3032 RMK AO2 SLP262 T02000111 50002
KW22 
49nm SE 
221435Z AUTO 00000KT 10SM CLR 17/11 A3032 RMK AO2
TAF
KHLG 
31nm N 
221120Z 2212/2312 18005KT P6SM BKN250
KPKB 
33nm SW 
221137Z 2212/2312 00000KT 6SM BR SCT040 FM221300 00000KT 6SM FU SCT035 FM221700 18004KT P6SM SKC
KCKB 
37nm SE 
221137Z 2212/2312 08005KT P6SM SCT250 FM221500 16005KT P6SM SCT250
NOTAMs
Click for the latest NOTAMs
NOTAMs are issued by the DoD/FAA and will open in a separate window not controlled by AirNav.

 

 
 

Would you like to see your business listed on this page?

 If your business provides an interesting product or service to pilots, flight crews, aircraft, or users of the Wetzel County Hospital Heliport, you should consider listing it here.  To start the listing process, click on the button below
 
Add a business
 

Other Pages about Wetzel County Hospital Heliport

Update a link
 
Copyright © AirNav, LLC. All rights reserved. Privacy Policy  Contact